JM1YTT-13 Weather Reports


Display with metric or nautical units.
time (UTC)temp
F
wind
direction
speed
MPH
gust
MPH
rain 1hr
in
rain 24hr
in
rain mn
in
humidity
%
barometer
mb
20260505171310 55 334 0.0 2.0 0.00 0.00 0.00 83 1021.2
20260505164310 54 65 0.0 2.0 0.00 0.00 0.00 83 1021.3
20260505161310 54 65 0.0 0.0 0.00 0.00 0.00 82 1021.3
20260505151310 52 65 0.0 0.0 0.00 0.00 0.00 83 1021.7
20260505124310 55 65 0.0 2.0 0.00 0.00 0.00 73 1021.5
20260505121310 56 65 0.0 0.0 0.00 0.00 0.00 70 1021.5
20260505114310 56 83 0.0 0.0 0.00 0.00 0.00 68 1021.3
20260505111310 57 71 0.0 0.0 0.00 0.00 0.00 65 1021.0
20260505101310 60 256 0.0 0.0 0.00 0.00 0.00 57 1020.5
20260505094310 61 210 1.0 2.0 0.00 0.00 0.00 53 1020.2
20260505091310 64 238 2.0 10.0 0.00 0.00 0.00 47 1019.8
20260505084310 67 44 0.0 6.0 0.00 0.00 0.00 42 1019.5
20260505081310 67 360 2.0 6.0 0.00 0.00 0.00 43 1019.4
20260505074310 69 55 3.0 6.0 0.00 0.00 0.00 41 1019.3
20260505071310 70 92 4.0 12.0 0.00 0.00 0.00 44 1019.1
20260505064310 71 8 2.0 6.0 0.00 0.00 0.00 42 1018.7
20260505061310 72 81 5.0 14.0 0.00 0.00 0.00 39 1018.3
20260505054310 73 85 2.0 6.0 0.00 0.00 0.00 38 1018.1
20260505051310 74 329 2.0 12.0 0.00 0.00 0.00 37 1018.2
20260505041310 75 39 0.0 4.0 0.00 0.00 0.00 30 1018.4
20260505034310 74 139 0.0 2.0 0.00 0.00 0.00 30 1018.5
20260505031310 72 331 0.0 2.0 0.00 0.00 0.00 29 1018.4
20260505024310 73 83 0.0 0.0 0.00 0.00 0.00 29 1018.5
20260505021310 72 154 0.0 2.0 0.00 0.00 0.00 32 1018.5
20260505014310 69 326 0.0 2.0 0.00 0.00 0.00 36 1018.6
20260505011310 69 292 1.0 6.0 0.00 0.00 0.00 35 1018.3
20260505004310 68 334 0.0 2.0 0.00 0.00 0.00 35 1018.2
20260505001310 66 335 0.0 2.0 0.00 0.00 0.00 38 1018.2
20260504234310 64 339 0.0 2.0 0.00 0.00 0.00 42 1018.0
20260504231310 62 327 0.0 2.0 0.00 0.00 0.00 46 1018.1
20260504224310 61 245 0.0 2.0 0.00 0.00 0.00 50 1017.7
20260504221310 56 334 0.0 0.0 0.00 0.00 0.00 62 1017.7
20260504214310 51 341 0.0 0.0 0.00 0.00 0.00 62 1014.9
20260504211310 51 341 0.0 0.0 0.00 0.00 0.00 62 1014.9
20260504204310 51 341 0.0 0.0 0.00 0.00 0.00 62 1014.9
20260504201310 51 341 0.0 0.0 0.00 0.00 0.00 62 1014.9
20260504194310 52 334 0.0 0.0 0.00 0.00 0.00 62 1014.6
20260504191310 52 334 0.0 0.0 0.00 0.00 0.00 61 1014.0
20260504184310 53 334 0.0 2.0 0.00 0.00 0.00 60 1013.3
20260504181310 54 358 0.0 0.0 0.00 0.00 0.00 58 1012.5
20260504174310 54 11 0.0 0.0 0.00 0.00 0.00 55 1011.6